JBU9900 KCLE-KFLL

Flight info

Callsign JBU9900
Flight time 2h 28m
Altitude 35000
Route KKIDS1 NUSMM EKN RDU ILM/N0458F360 GARIC JRDAN Y291 MAJIK CUUDA3
Aircraft A320/M-SDE3FGHIRWY/LB1

Departure

Time 2026-05-07 13:01
Airport Cleveland Hopkins International Airport (KCLE)

Arrival

Time 2026-05-07 15:29
Airport Fort Lauderdale Hollywood International Airport (KFLL)
Time Latitude Longitude Altitude Speed Heading
2026-05-07 11:56 41.40890 -81.83954 753 ft 0 kts 323°
2026-05-07 12:50 41.40886 -81.83950 762 ft 4 kts 322°
2026-05-07 12:50 41.40866 -81.83926 762 ft 4 kts 308°
2026-05-07 12:50 41.40856 -81.83908 762 ft 4 kts 285°
2026-05-07 12:50 41.40858 -81.83883 762 ft 2 kts 219°
2026-05-07 12:51 41.40858 -81.83882 762 ft 1 kts 218°
2026-05-07 12:54 41.40847 -81.83894 760 ft 4 kts 219°
2026-05-07 12:54 41.40787 -81.83949 760 ft 15 kts 213°
2026-05-07 12:54 41.40700 -81.84025 760 ft 15 kts 213°
2026-05-07 12:54 41.40617 -81.84114 760 ft 15 kts 242°
2026-05-07 12:55 41.40610 -81.84251 760 ft 15 kts 271°
2026-05-07 12:55 41.40614 -81.84391 760 ft 15 kts 281°
2026-05-07 12:55 41.40699 -81.84432 760 ft 14 kts 360°
2026-05-07 12:55 41.40800 -81.84433 760 ft 15 kts
2026-05-07 12:56 41.40891 -81.84421 760 ft 11 kts 32°
2026-05-07 12:56 41.40936 -81.84376 760 ft 8 kts
2026-05-07 12:56 41.41008 -81.84377 760 ft 12 kts 359°
2026-05-07 12:56 41.41090 -81.84380 761 ft 12 kts 359°
2026-05-07 12:57 41.41174 -81.84381 761 ft 12 kts 360°
2026-05-07 12:57 41.41243 -81.84323 760 ft 12 kts 50°
2026-05-07 12:57 41.41302 -81.84230 760 ft 14 kts 49°
2026-05-07 12:57 41.41369 -81.84126 760 ft 10 kts 49°
2026-05-07 12:58 41.41401 -81.84099 760 ft 6 kts
2026-05-07 12:58 41.41443 -81.84122 760 ft 5 kts 321°
2026-05-07 12:58 41.41474 -81.84155 760 ft 7 kts 320°
2026-05-07 12:58 41.41517 -81.84203 760 ft 8 kts 316°
2026-05-07 12:59 41.41514 -81.84236 759 ft 1 kts 227°
2026-05-07 12:59 41.41513 -81.84237 759 ft 0 kts 226°
2026-05-07 13:00 41.41489 -81.84274 757 ft 15 kts 230°
2026-05-07 13:00 41.41282 -81.84602 758 ft 79 kts 230°
2026-05-07 13:01 41.40808 -81.85351 759 ft 130 kts 230°
2026-05-07 13:01 41.40138 -81.86413 849 ft 162 kts 230°
2026-05-07 13:01 41.39416 -81.87548 1541 ft 160 kts 231°
2026-05-07 13:01 41.38525 -81.88469 2119 ft 171 kts 205°
2026-05-07 13:02 41.37273 -81.88676 2455 ft 194 kts 178°
2026-05-07 13:02 41.35871 -81.88517 2750 ft 212 kts 178°
2026-05-07 13:02 41.34308 -81.88352 2967 ft 240 kts 178°
2026-05-07 13:02 41.32539 -81.88170 3291 ft 268 kts 178°
2026-05-07 13:03 41.30711 -81.87618 4081 ft 274 kts 154°
2026-05-07 13:03 41.29330 -81.85875 5017 ft 280 kts 122°
2026-05-07 13:03 41.28437 -81.83551 5752 ft 286 kts 116°
2026-05-07 13:03 41.27634 -81.81133 5968 ft 286 kts 115°
2026-05-07 13:04 41.26839 -81.78703 6154 ft 288 kts 115°
2026-05-07 13:04 41.26014 -81.76283 6989 ft 288 kts 117°
2026-05-07 13:04 41.25146 -81.73858 7723 ft 293 kts 118°
2026-05-07 13:04 41.24234 -81.71407 8440 ft 299 kts 119°
2026-05-07 13:05 41.23288 -81.68924 9175 ft 304 kts 120°
2026-05-07 13:05 41.22383 -81.66355 9876 ft 312 kts 111°
2026-05-07 13:05 41.21921 -81.63507 10429 ft 323 kts 97°
2026-05-07 13:05 41.21679 -81.60434 10585 ft 346 kts 97°
2026-05-07 13:06 41.21431 -81.57151 10715 ft 368 kts 96°
2026-05-07 13:06 41.21175 -81.53683 10956 ft 384 kts 96°
2026-05-07 13:06 41.20869 -81.50122 11471 ft 390 kts 102°
2026-05-07 13:06 41.20100 -81.46665 12010 ft 392 kts 115°
2026-05-07 13:07 41.18779 -81.43505 12579 ft 392 kts 129°
2026-05-07 13:07 41.16980 -81.40800 13135 ft 391 kts 142°
2026-05-07 13:07 41.14807 -81.38666 13699 ft 388 kts 155°
2026-05-07 13:07 41.12374 -81.37152 14042 ft 386 kts 165°
2026-05-07 13:08 41.09858 -81.35870 14587 ft 388 kts 165°
2026-05-07 13:08 41.07335 -81.34573 15137 ft 390 kts 165°
2026-05-07 13:08 41.04831 -81.33284 15662 ft 392 kts 166°
2026-05-07 13:08 41.02280 -81.31966 16191 ft 395 kts 166°
2026-05-07 13:09 40.99715 -81.30641 16721 ft 397 kts 167°
2026-05-07 13:09 40.97137 -81.29313 17262 ft 399 kts 167°
2026-05-07 13:09 40.94544 -81.27978 17794 ft 401 kts 168°
2026-05-07 13:09 40.91934 -81.26635 18325 ft 404 kts 168°
2026-05-07 13:10 40.89307 -81.25281 18783 ft 407 kts 168°
2026-05-07 13:10 40.86664 -81.23923 19262 ft 409 kts 169°
2026-05-07 13:10 40.84007 -81.22560 19757 ft 411 kts 169°
2026-05-07 13:10 40.81336 -81.21191 20232 ft 413 kts 169°
2026-05-07 13:11 40.78651 -81.19816 20652 ft 415 kts 170°
2026-05-07 13:11 40.75948 -81.18435 21087 ft 418 kts 170°
2026-05-07 13:11 40.73229 -81.17047 21528 ft 420 kts 170°
2026-05-07 13:11 40.70498 -81.15654 21953 ft 422 kts 170°
2026-05-07 13:12 40.67754 -81.14254 22363 ft 424 kts 171°
2026-05-07 13:12 40.64997 -81.12847 22789 ft 426 kts 171°
2026-05-07 13:12 40.62223 -81.11432 23198 ft 428 kts 171°
2026-05-07 13:12 40.59441 -81.10015 23594 ft 430 kts 171°
2026-05-07 13:13 40.56646 -81.08592 23920 ft 432 kts 171°
2026-05-07 13:13 40.53841 -81.07162 24251 ft 433 kts 172°
2026-05-07 13:13 40.51030 -81.05729 24588 ft 434 kts 172°
2026-05-07 13:13 40.48210 -81.04295 24917 ft 435 kts 172°
2026-05-07 13:14 40.45380 -81.02859 25238 ft 437 kts 173°
2026-05-07 13:14 40.42540 -81.01421 25588 ft 438 kts 173°
2026-05-07 13:14 40.39689 -80.99981 25924 ft 440 kts 173°
2026-05-07 13:14 40.36827 -80.98538 26276 ft 441 kts 173°
2026-05-07 13:15 40.33957 -80.97090 26608 ft 442 kts 174°
2026-05-07 13:15 40.31093 -80.95643 27079 ft 440 kts 174°
2026-05-07 13:15 40.28244 -80.94199 27560 ft 438 kts 174°
2026-05-07 13:15 40.25408 -80.92760 28047 ft 436 kts 175°
2026-05-07 13:16 40.22579 -80.91331 28559 ft 434 kts 175°
2026-05-07 13:16 40.19772 -80.89915 29040 ft 431 kts 177°
2026-05-07 13:16 40.16984 -80.88514 29546 ft 428 kts 177°
2026-05-07 13:16 40.14211 -80.87126 30058 ft 426 kts 178°
2026-05-07 13:17 40.11452 -80.85744 30455 ft 424 kts 178°
2026-05-07 13:17 40.08700 -80.84369 30746 ft 423 kts 179°
2026-05-07 13:17 40.05952 -80.83001 31087 ft 422 kts 179°
2026-05-07 13:17 40.03208 -80.81599 31444 ft 430 kts 176°
2026-05-07 13:18 40.00483 -80.79868 31823 ft 437 kts 174°
2026-05-07 13:18 39.97764 -80.78097 32177 ft 437 kts 174°
2026-05-07 13:18 39.95047 -80.76323 32548 ft 437 kts 174°
2026-05-07 13:18 39.92330 -80.74550 32904 ft 437 kts 174°
2026-05-07 13:19 39.89613 -80.72776 33262 ft 437 kts 174°
2026-05-07 13:19 39.86892 -80.70999 33561 ft 437 kts 174°
2026-05-07 13:19 39.84171 -80.69228 33875 ft 437 kts 174°
2026-05-07 13:19 39.81484 -80.67479 34166 ft 438 kts 174°
2026-05-07 13:20 39.78756 -80.65709 34406 ft 439 kts 174°
2026-05-07 13:20 39.76023 -80.63943 34655 ft 439 kts 174°
2026-05-07 13:20 39.73284 -80.62176 34886 ft 440 kts 174°
2026-05-07 13:20 39.70537 -80.60403 34993 ft 443 kts 174°
2026-05-07 13:21 39.64933 -80.56815 35011 ft 456 kts 173°
2026-05-07 13:21 39.59211 -80.53133 34983 ft 461 kts 173°
2026-05-07 13:22 39.53475 -80.49413 35013 ft 461 kts 173°
2026-05-07 13:22 39.47735 -80.45696 35001 ft 461 kts 173°
2026-05-07 13:23 39.41982 -80.42004 34999 ft 461 kts 173°
2026-05-07 13:23 39.36234 -80.38348 35025 ft 462 kts 173°
2026-05-07 13:24 39.30467 -80.34679 35040 ft 462 kts 173°
2026-05-07 13:24 39.24709 -80.30998 35058 ft 462 kts 173°
2026-05-07 13:25 39.18952 -80.27334 35057 ft 461 kts 173°
2026-05-07 13:25 39.13207 -80.23687 35005 ft 460 kts 173°
2026-05-07 13:26 39.07473 -80.20051 35024 ft 460 kts 173°
2026-05-07 13:26 39.01772 -80.16444 34996 ft 460 kts 173°
2026-05-07 13:27 38.96040 -80.12819 35030 ft 459 kts 173°
2026-05-07 13:27 38.90311 -80.09395 35009 ft 441 kts 179°
2026-05-07 13:28 38.84554 -80.06798 35026 ft 437 kts 180°
2026-05-07 13:28 38.78800 -80.04229 35033 ft 438 kts 180°
2026-05-07 13:29 38.73044 -80.01648 35041 ft 439 kts 180°
2026-05-07 13:29 38.67284 -79.99057 34994 ft 439 kts 179°
2026-05-07 13:30 38.61535 -79.96471 35001 ft 438 kts 179°
2026-05-07 13:30 38.55784 -79.93905 35007 ft 438 kts 179°
2026-05-07 13:31 38.50032 -79.91336 35009 ft 438 kts 179°
2026-05-07 13:31 38.44285 -79.88766 34950 ft 437 kts 179°
2026-05-07 13:32 38.38530 -79.86202 34970 ft 438 kts 179°
2026-05-07 13:32 38.32772 -79.83647 34978 ft 438 kts 179°
2026-05-07 13:33 38.27050 -79.81114 34977 ft 438 kts 179°
2026-05-07 13:33 38.21285 -79.78554 34958 ft 439 kts 179°
2026-05-07 13:34 38.12571 -79.74711 34969 ft 444 kts 178°
2026-05-07 13:35 38.06736 -79.72128 34968 ft 444 kts 178°
2026-05-07 13:35 38.00897 -79.69545 34966 ft 444 kts 178°
2026-05-07 13:36 37.95069 -79.66978 35067 ft 444 kts 178°
2026-05-07 13:36 37.89237 -79.64424 35095 ft 444 kts 178°
2026-05-07 13:37 37.83402 -79.61876 35110 ft 444 kts 178°
2026-05-07 13:37 37.77570 -79.59335 35101 ft 444 kts 178°
2026-05-07 13:38 37.71774 -79.56804 35013 ft 444 kts 178°
2026-05-07 13:38 37.65909 -79.54251 35030 ft 447 kts 178°
2026-05-07 13:39 37.60020 -79.51679 35000 ft 448 kts 178°
2026-05-07 13:39 37.54135 -79.49112 34970 ft 448 kts 178°
2026-05-07 13:40 37.48263 -79.46561 34914 ft 446 kts 178°
2026-05-07 13:40 37.42384 -79.44025 34929 ft 447 kts 178°
2026-05-07 13:41 37.37495 -79.41920 34930 ft 447 kts 178°
2026-05-07 13:41 37.31591 -79.39378 34969 ft 449 kts 178°
2026-05-07 13:42 37.25683 -79.36834 34952 ft 449 kts 178°
2026-05-07 13:42 37.19771 -79.34286 34913 ft 449 kts 177°
2026-05-07 13:43 37.13852 -79.31734 34933 ft 450 kts 177°
2026-05-07 13:43 37.07928 -79.29187 34944 ft 450 kts 177°
2026-05-07 13:44 37.02004 -79.26645 34946 ft 450 kts 177°
2026-05-07 13:44 36.96082 -79.24112 34907 ft 450 kts 177°
2026-05-07 13:45 36.90153 -79.21581 34912 ft 450 kts 177°
2026-05-07 13:45 36.84221 -79.19055 34922 ft 450 kts 177°
2026-05-07 13:46 36.78285 -79.16541 34930 ft 451 kts 177°
2026-05-07 13:46 36.72342 -79.14017 34893 ft 451 kts 177°
2026-05-07 13:47 36.66373 -79.11494 34935 ft 454 kts 177°
2026-05-07 13:47 36.60387 -79.08954 34939 ft 454 kts 177°
2026-05-07 13:48 36.54445 -79.06438 34941 ft 454 kts 177°
2026-05-07 13:48 36.48460 -79.03912 34891 ft 455 kts 176°
2026-05-07 13:49 36.42466 -79.01380 34914 ft 456 kts 176°
2026-05-07 13:49 36.36458 -78.98851 34931 ft 456 kts 176°
2026-05-07 13:50 36.30442 -78.96333 34937 ft 456 kts 176°
2026-05-07 13:50 36.24423 -78.93814 34947 ft 457 kts 176°
2026-05-07 13:51 36.18388 -78.91300 34928 ft 459 kts 176°
2026-05-07 13:51 36.12320 -78.88773 34928 ft 460 kts 176°
2026-05-07 13:52 36.06253 -78.86235 34923 ft 461 kts 175°
2026-05-07 13:52 36.00182 -78.83700 34921 ft 461 kts 176°
2026-05-07 13:53 35.94108 -78.81175 34894 ft 461 kts 175°
2026-05-07 13:53 35.88025 -78.78638 34904 ft 465 kts 173°
2026-05-07 13:53 35.85022 -78.76993 34875 ft 478 kts 167°
2026-05-07 13:54 35.82045 -78.75173 34869 ft 478 kts 167°
2026-05-07 13:54 35.76080 -78.71528 34877 ft 478 kts 167°
2026-05-07 13:55 35.70116 -78.67895 34853 ft 478 kts 166°
2026-05-07 13:55 35.64192 -78.64302 34881 ft 478 kts 166°
2026-05-07 13:56 35.58232 -78.60696 34901 ft 477 kts 166°
2026-05-07 13:56 35.52275 -78.57091 34912 ft 477 kts 166°
2026-05-07 13:57 35.46321 -78.53493 34915 ft 477 kts 166°
2026-05-07 13:57 35.40366 -78.49903 34911 ft 477 kts 166°
2026-05-07 13:58 35.34407 -78.46330 34908 ft 477 kts 166°
2026-05-07 13:58 35.28445 -78.42745 34907 ft 477 kts 166°
2026-05-07 13:59 35.22489 -78.39166 34914 ft 477 kts 166°
2026-05-07 13:59 35.16532 -78.35600 34896 ft 477 kts 166°
2026-05-07 14:00 35.10575 -78.32039 34922 ft 477 kts 166°
2026-05-07 14:00 35.04619 -78.28479 34932 ft 477 kts 166°
2026-05-07 14:01 34.98662 -78.24931 34951 ft 477 kts 166°
2026-05-07 14:01 34.95723 -78.23181 35272 ft 476 kts 166°
2026-05-07 14:01 34.92751 -78.21412 35583 ft 475 kts 166°
2026-05-07 14:01 34.89784 -78.19646 35825 ft 475 kts 165°
2026-05-07 14:02 34.86814 -78.17883 35917 ft 475 kts 165°
2026-05-07 14:02 34.80873 -78.14364 35929 ft 474 kts 165°
2026-05-07 14:03 34.74943 -78.10857 35923 ft 474 kts 165°
2026-05-07 14:03 34.69013 -78.07346 35928 ft 474 kts 165°
2026-05-07 14:04 34.63077 -78.03838 35924 ft 476 kts 165°
2026-05-07 14:04 34.57106 -78.00327 35933 ft 478 kts 165°
2026-05-07 14:05 34.51122 -77.96811 35943 ft 478 kts 165°
2026-05-07 14:05 34.45125 -77.93285 35936 ft 480 kts 164°
2026-05-07 14:06 34.39069 -77.89991 35923 ft 469 kts 173°
2026-05-07 14:06 34.35947 -77.89031 35888 ft 458 kts 181°
2026-05-07 14:06 34.32823 -77.88637 35894 ft 446 kts 189°
2026-05-07 14:07 34.26793 -77.89338 35902 ft 430 kts 201°
2026-05-07 14:07 34.20902 -77.90694 35912 ft 432 kts 201°
2026-05-07 14:08 34.14982 -77.92021 35914 ft 433 kts 201°
2026-05-07 14:08 34.09042 -77.93350 35914 ft 434 kts 200°
2026-05-07 14:09 34.03097 -77.94686 35927 ft 435 kts 200°
2026-05-07 14:09 33.97183 -77.96009 35932 ft 435 kts 200°
2026-05-07 14:10 33.91230 -77.97349 35946 ft 435 kts 200°
2026-05-07 14:10 33.85086 -77.98026 35933 ft 452 kts 187°
2026-05-07 14:11 33.78837 -77.97637 35942 ft 453 kts 187°
2026-05-07 14:11 33.72539 -77.97241 35964 ft 453 kts 187°
2026-05-07 14:12 33.66232 -77.96854 35971 ft 453 kts 187°
2026-05-07 14:12 33.59930 -77.96475 35928 ft 454 kts 186°
2026-05-07 14:13 33.53618 -77.96089 35940 ft 455 kts 186°
2026-05-07 14:13 33.47294 -77.95713 35960 ft 455 kts 186°
2026-05-07 14:14 33.40957 -77.95338 35965 ft 457 kts 186°
2026-05-07 14:14 33.34608 -77.94947 35948 ft 457 kts 186°
2026-05-07 14:15 33.28245 -77.94563 35968 ft 458 kts 186°
2026-05-07 14:15 33.21880 -77.94177 35977 ft 458 kts 186°
2026-05-07 14:16 33.15510 -77.93798 35990 ft 458 kts 186°
2026-05-07 14:16 33.09139 -77.93424 35967 ft 458 kts 186°
2026-05-07 14:17 33.02885 -77.93786 35975 ft 441 kts 200°
2026-05-07 14:17 32.97035 -77.95694 35983 ft 435 kts 205°
2026-05-07 14:18 32.91206 -77.97695 35985 ft 436 kts 205°
2026-05-07 14:18 32.85413 -77.99671 35995 ft 436 kts 205°
2026-05-07 14:19 32.79537 -78.01667 35998 ft 436 kts 205°
2026-05-07 14:19 32.73700 -78.03652 36008 ft 436 kts 205°
2026-05-07 14:20 32.67900 -78.05623 36016 ft 436 kts 205°
2026-05-07 14:20 32.62061 -78.07607 36016 ft 437 kts 205°
2026-05-07 14:21 32.56217 -78.09591 35999 ft 436 kts 205°
2026-05-07 14:21 32.50381 -78.11569 36006 ft 437 kts 205°
2026-05-07 14:22 32.44539 -78.13540 36016 ft 437 kts 204°
2026-05-07 14:22 32.38693 -78.15516 36021 ft 436 kts 205°
2026-05-07 14:23 32.32855 -78.17493 36014 ft 437 kts 204°
2026-05-07 14:23 32.27013 -78.19458 36024 ft 437 kts 204°
2026-05-07 14:24 32.21173 -78.21427 36028 ft 437 kts 204°
2026-05-07 14:24 32.15329 -78.23384 36037 ft 437 kts 204°
2026-05-07 14:25 32.09482 -78.25348 36039 ft 436 kts 204°
2026-05-07 14:25 32.03646 -78.27316 36009 ft 437 kts 204°
2026-05-07 14:26 31.97818 -78.29272 36009 ft 439 kts 204°
2026-05-07 14:26 31.91895 -78.31244 36018 ft 440 kts 204°
2026-05-07 14:27 31.86039 -78.33191 36028 ft 441 kts 204°
2026-05-07 14:27 31.80139 -78.35160 36012 ft 441 kts 204°
2026-05-07 14:28 31.74232 -78.37130 36021 ft 442 kts 204°
2026-05-07 14:28 31.68308 -78.39087 36030 ft 443 kts 204°
2026-05-07 14:29 31.62375 -78.41052 36042 ft 443 kts 204°
2026-05-07 14:29 31.56448 -78.43027 36046 ft 443 kts 204°
2026-05-07 14:30 31.50515 -78.44999 36029 ft 444 kts 203°
2026-05-07 14:30 31.44561 -78.46943 36033 ft 445 kts 203°
2026-05-07 14:31 31.38591 -78.48872 36037 ft 445 kts 203°
2026-05-07 14:31 31.32614 -78.50798 36050 ft 446 kts 203°
2026-05-07 14:32 31.27641 -78.52401 36033 ft 446 kts 203°
2026-05-07 14:32 31.21658 -78.54336 36036 ft 447 kts 203°
2026-05-07 14:33 31.15665 -78.56276 36042 ft 447 kts 203°
2026-05-07 14:33 31.09663 -78.58214 36051 ft 448 kts 203°
2026-05-07 14:34 31.03656 -78.60152 36055 ft 448 kts 203°
2026-05-07 14:34 30.97637 -78.62088 36041 ft 449 kts 203°
2026-05-07 14:35 30.91613 -78.64019 36048 ft 449 kts 202°
2026-05-07 14:35 30.85577 -78.65945 36056 ft 450 kts 202°
2026-05-07 14:36 30.79538 -78.67872 36069 ft 450 kts 202°
2026-05-07 14:36 30.73542 -78.69799 36029 ft 450 kts 203°
2026-05-07 14:37 30.67499 -78.71729 36047 ft 451 kts 202°
2026-05-07 14:37 30.58414 -78.74626 36063 ft 451 kts 203°
2026-05-07 14:38 30.52355 -78.76558 36068 ft 452 kts 203°
2026-05-07 14:38 30.46294 -78.78491 36054 ft 452 kts 202°
2026-05-07 14:39 30.40225 -78.80418 36060 ft 453 kts 202°
2026-05-07 14:39 30.34148 -78.82338 36066 ft 453 kts 202°
2026-05-07 14:40 30.28067 -78.84257 36070 ft 453 kts 202°
2026-05-07 14:40 30.21981 -78.86187 36075 ft 453 kts 202°
2026-05-07 14:41 30.15903 -78.88120 36082 ft 453 kts 202°
2026-05-07 14:41 30.09820 -78.90039 36083 ft 453 kts 202°
2026-05-07 14:42 30.03734 -78.91947 36090 ft 453 kts 202°
2026-05-07 14:42 29.97692 -78.93846 36088 ft 453 kts 202°
2026-05-07 14:43 29.91613 -78.95767 36062 ft 453 kts 202°
2026-05-07 14:43 29.85527 -78.97682 36068 ft 454 kts 202°
2026-05-07 14:44 29.79378 -78.99446 36068 ft 460 kts 196°
2026-05-07 14:44 29.73052 -79.00610 36072 ft 461 kts 196°
2026-05-07 14:45 29.66724 -79.01776 36080 ft 461 kts 196°
2026-05-07 14:45 29.60392 -79.02937 36056 ft 461 kts 196°
2026-05-07 14:46 29.54053 -79.04107 36065 ft 462 kts 196°
2026-05-07 14:46 29.47704 -79.05274 36076 ft 462 kts 196°
2026-05-07 14:47 29.41349 -79.06440 36079 ft 462 kts 196°
2026-05-07 14:47 29.35003 -79.07615 36074 ft 462 kts 196°
2026-05-07 14:48 29.28656 -79.08781 36083 ft 462 kts 195°
2026-05-07 14:48 29.22301 -79.09937 36094 ft 462 kts 195°
2026-05-07 14:49 29.15952 -79.11090 36096 ft 462 kts 195°
2026-05-07 14:49 29.09652 -79.12247 36099 ft 461 kts 196°
2026-05-07 14:50 29.03310 -79.13409 36078 ft 462 kts 195°
2026-05-07 14:50 28.96959 -79.14574 36086 ft 463 kts 195°
2026-05-07 14:51 28.90598 -79.15728 36094 ft 463 kts 195°
2026-05-07 14:51 28.84234 -79.16879 36099 ft 463 kts 195°
2026-05-07 14:52 28.77869 -79.18033 36087 ft 463 kts 195°
2026-05-07 14:52 28.71495 -79.19194 36090 ft 464 kts 195°
2026-05-07 14:53 28.65122 -79.20349 36097 ft 464 kts 195°
2026-05-07 14:53 28.58752 -79.21509 36097 ft 464 kts 195°
2026-05-07 14:54 28.52379 -79.22664 36091 ft 464 kts 194°
2026-05-07 14:54 28.46003 -79.23815 36090 ft 464 kts 195°
2026-05-07 14:55 28.39624 -79.24962 36096 ft 464 kts 195°
2026-05-07 14:55 28.33243 -79.26109 36101 ft 463 kts 197°
2026-05-07 14:56 28.27076 -79.27994 36105 ft 458 kts 202°
2026-05-07 14:56 28.20983 -79.29986 36093 ft 458 kts 201°
2026-05-07 14:57 28.14852 -79.31983 36091 ft 459 kts 201°
2026-05-07 14:57 28.08717 -79.33972 36096 ft 459 kts 201°
2026-05-07 14:58 28.02579 -79.35962 36102 ft 459 kts 201°
2026-05-07 14:58 27.96433 -79.37947 36103 ft 459 kts 201°
2026-05-07 14:59 27.90295 -79.39921 36097 ft 459 kts 201°
2026-05-07 14:59 27.84147 -79.41902 36105 ft 459 kts 201°
2026-05-07 15:00 27.78003 -79.43877 36110 ft 459 kts 201°
2026-05-07 15:00 27.71856 -79.45855 35725 ft 461 kts 201°
2026-05-07 15:01 27.68742 -79.46863 34819 ft 469 kts 201°
2026-05-07 15:01 27.65592 -79.47882 33957 ft 474 kts 201°
2026-05-07 15:01 27.62407 -79.48910 33030 ft 478 kts 201°
2026-05-07 15:01 27.59197 -79.49938 32122 ft 481 kts 201°
2026-05-07 15:02 27.55960 -79.50972 31245 ft 484 kts 201°
2026-05-07 15:02 27.52704 -79.52011 30362 ft 487 kts 201°
2026-05-07 15:02 27.49450 -79.53050 29478 ft 487 kts 201°
2026-05-07 15:02 27.46204 -79.54086 28131 ft 485 kts 200°
2026-05-07 15:03 27.43004 -79.55103 27539 ft 465 kts 200°
2026-05-07 15:03 27.39974 -79.56056 27133 ft 442 kts 201°
2026-05-07 15:03 27.37068 -79.56968 26815 ft 429 kts 201°
2026-05-07 15:03 27.34194 -79.57877 26574 ft 428 kts 201°
2026-05-07 15:04 27.31336 -79.58784 26288 ft 426 kts 201°
2026-05-07 15:04 27.28487 -79.59686 25756 ft 424 kts 201°
2026-05-07 15:04 27.25650 -79.60583 25214 ft 423 kts 201°
2026-05-07 15:04 27.22823 -79.61473 24676 ft 421 kts 201°
2026-05-07 15:05 27.20005 -79.62360 24165 ft 420 kts 201°
2026-05-07 15:05 27.17206 -79.63242 23637 ft 418 kts 201°
2026-05-07 15:05 27.14424 -79.64128 23209 ft 412 kts 201°
2026-05-07 15:05 27.11696 -79.65000 22474 ft 404 kts 201°
2026-05-07 15:06 27.09013 -79.65860 21959 ft 399 kts 200°
2026-05-07 15:06 27.06346 -79.66719 21461 ft 398 kts 200°
2026-05-07 15:06 27.03729 -79.67561 20957 ft 395 kts 200°
2026-05-07 15:06 27.01094 -79.68408 20452 ft 393 kts 200°
2026-05-07 15:07 26.98479 -79.69247 19953 ft 390 kts 200°
2026-05-07 15:07 26.95881 -79.70076 19457 ft 387 kts 199°
2026-05-07 15:07 26.93292 -79.70902 18959 ft 387 kts 199°
2026-05-07 15:07 26.90711 -79.71725 18595 ft 381 kts 199°
2026-05-07 15:08 26.88192 -79.72523 18301 ft 373 kts 199°
2026-05-07 15:08 26.85705 -79.73311 17855 ft 370 kts 199°
2026-05-07 15:08 26.83241 -79.74095 17397 ft 367 kts 199°
2026-05-07 15:08 26.80792 -79.74877 16938 ft 364 kts 198°
2026-05-07 15:09 26.78378 -79.75645 16249 ft 359 kts 198°
2026-05-07 15:09 26.75991 -79.76400 15527 ft 354 kts 197°
2026-05-07 15:09 26.73636 -79.77142 15067 ft 350 kts 197°
2026-05-07 15:09 26.71301 -79.77876 14625 ft 348 kts 197°
2026-05-07 15:10 26.68980 -79.78639 14178 ft 348 kts 198°
2026-05-07 15:10 26.66691 -79.79509 13711 ft 347 kts 200°
2026-05-07 15:10 26.64448 -79.80439 13475 ft 338 kts 202°
2026-05-07 15:10 26.62272 -79.81367 13196 ft 332 kts 202°
2026-05-07 15:11 26.60120 -79.82284 12832 ft 330 kts 201°
2026-05-07 15:11 26.57984 -79.83181 12420 ft 325 kts 201°
2026-05-07 15:11 26.55873 -79.84052 11764 ft 322 kts 200°
2026-05-07 15:11 26.53807 -79.84935 11309 ft 312 kts 201°
2026-05-07 15:12 26.51834 -79.85843 10849 ft 303 kts 202°
2026-05-07 15:12 26.49913 -79.86760 10393 ft 297 kts 202°
2026-05-07 15:12 26.48016 -79.87674 10005 ft 297 kts 202°
2026-05-07 15:12 26.46125 -79.88582 9590 ft 295 kts 202°
2026-05-07 15:13 26.44240 -79.89481 9203 ft 295 kts 201°
2026-05-07 15:13 26.42348 -79.90377 8828 ft 296 kts 202°
2026-05-07 15:13 26.40458 -79.91268 8497 ft 294 kts 202°
2026-05-07 15:13 26.38582 -79.92155 8165 ft 292 kts 204°
2026-05-07 15:14 26.36818 -79.93251 8008 ft 287 kts 209°
2026-05-07 15:14 26.35091 -79.94369 8018 ft 287 kts 208°
2026-05-07 15:14 26.33360 -79.95480 8018 ft 287 kts 208°
2026-05-07 15:14 26.31628 -79.96587 8007 ft 287 kts 209°
2026-05-07 15:15 26.29887 -79.97698 7653 ft 288 kts 208°
2026-05-07 15:15 26.28162 -79.98800 7510 ft 284 kts 209°
2026-05-07 15:15 26.26451 -79.99895 7415 ft 283 kts 209°
2026-05-07 15:15 26.24743 -80.00989 7327 ft 283 kts 209°
2026-05-07 15:16 26.23038 -80.02083 7238 ft 283 kts 209°
2026-05-07 15:16 26.21338 -80.03172 7152 ft 282 kts 210°
2026-05-07 15:16 26.19649 -80.04314 7069 ft 285 kts 217°
2026-05-07 15:16 26.18242 -80.05856 6972 ft 285 kts 233°
2026-05-07 15:17 26.17277 -80.07774 6887 ft 285 kts 249°
2026-05-07 15:17 26.16644 -80.09865 6791 ft 285 kts 251°
2026-05-07 15:17 26.16028 -80.11926 6708 ft 284 kts 251°
2026-05-07 15:17 26.15405 -80.14009 6615 ft 283 kts 252°
2026-05-07 15:18 26.15026 -80.16180 6531 ft 283 kts 266°
2026-05-07 15:18 26.15024 -80.18364 6439 ft 282 kts 270°
2026-05-07 15:18 26.15039 -80.20542 6352 ft 281 kts 270°
2026-05-07 15:18 26.15051 -80.22718 6265 ft 281 kts 270°
2026-05-07 15:19 26.15063 -80.24862 6170 ft 281 kts 270°
2026-05-07 15:19 26.15080 -80.27031 6048 ft 280 kts 270°
2026-05-07 15:19 26.15102 -80.29193 6014 ft 280 kts 270°
2026-05-07 15:19 26.15107 -80.31363 5916 ft 280 kts 269°
2026-05-07 15:20 26.15092 -80.33525 5830 ft 279 kts 269°
2026-05-07 15:20 26.15082 -80.35683 5755 ft 279 kts 270°
2026-05-07 15:20 26.15083 -80.37840 5682 ft 279 kts 269°
2026-05-07 15:20 26.15090 -80.39996 5605 ft 278 kts 270°
2026-05-07 15:21 26.15098 -80.42127 5423 ft 270 kts 270°
2026-05-07 15:21 26.15106 -80.44142 5300 ft 251 kts 269°
2026-05-07 15:21 26.15118 -80.46024 5126 ft 237 kts 270°
2026-05-07 15:21 26.15123 -80.47831 4756 ft 231 kts 266°
2026-05-07 15:22 26.14665 -80.49495 4325 ft 225 kts 233°
2026-05-07 15:22 26.13938 -80.50296 4079 ft 220 kts 209°
2026-05-07 15:22 26.12494 -80.50703 4067 ft 222 kts 176°
2026-05-07 15:22 26.11015 -80.50245 4018 ft 222 kts 156°
2026-05-07 15:23 26.09693 -80.49351 4020 ft 223 kts 144°
2026-05-07 15:23 26.08599 -80.48134 4020 ft 224 kts 124°
2026-05-07 15:23 26.07951 -80.46560 4008 ft 226 kts 104°
2026-05-07 15:23 26.07815 -80.44815 4008 ft 228 kts 91°
2026-05-07 15:24 26.07812 -80.43052 4017 ft 228 kts 91°
2026-05-07 15:24 26.07808 -80.41326 4004 ft 215 kts 91°
2026-05-07 15:24 26.07802 -80.39722 3921 ft 202 kts 92°
2026-05-07 15:24 26.07796 -80.38185 3686 ft 196 kts 91°
2026-05-07 15:25 26.07790 -80.36676 3438 ft 195 kts 91°
2026-05-07 15:25 26.07784 -80.35177 3190 ft 194 kts 91°
2026-05-07 15:25 26.07777 -80.33679 2939 ft 194 kts 91°
2026-05-07 15:25 26.07771 -80.32176 2686 ft 194 kts 92°
2026-05-07 15:26 26.07765 -80.30700 2436 ft 187 kts 92°
2026-05-07 15:26 26.07758 -80.29266 2205 ft 182 kts 92°
2026-05-07 15:26 26.07752 -80.27860 1986 ft 182 kts 94°
2026-05-07 15:26 26.07746 -80.26520 1732 ft 166 kts 94°
2026-05-07 15:27 26.07741 -80.25295 1519 ft 153 kts 92°
2026-05-07 15:27 26.07741 -80.24134 1319 ft 149 kts 91°
2026-05-07 15:27 26.07721 -80.22997 1148 ft 146 kts 92°
2026-05-07 15:27 26.07712 -80.21867 962 ft 145 kts 92°
2026-05-07 15:28 26.07706 -80.20740 771 ft 147 kts 93°
2026-05-07 15:28 26.07707 -80.19614 593 ft 144 kts 91°
2026-05-07 15:28 26.07705 -80.18490 412 ft 145 kts 91°
2026-05-07 15:28 26.07700 -80.17370 210 ft 145 kts 90°
2026-05-07 15:29 26.07694 -80.16254 31 ft 144 kts 91°
2026-05-07 15:29 26.07685 -80.15289 17 ft 101 kts 90°
2026-05-07 15:29 26.07681 -80.14696 19 ft 52 kts 89°
2026-05-07 15:29 26.07663 -80.14472 22 ft 17 kts 112°
2026-05-07 15:30 26.07597 -80.14374 18 ft 13 kts 154°
2026-05-07 15:30 26.07561 -80.14422 17 ft 4 kts 281°
2026-05-07 15:30 26.07565 -80.14461 17 ft 6 kts 272°
2026-05-07 15:30 26.07557 -80.14506 19 ft 6 kts 215°
2026-05-07 15:31 26.07505 -80.14515 16 ft 9 kts 198°
2026-05-07 15:31 26.07484 -80.14580 16 ft 11 kts 273°
2026-05-07 15:31 26.07489 -80.14670 16 ft 13 kts 270°
2026-05-07 15:31 26.07485 -80.14774 16 ft 14 kts 256°
2026-05-07 15:32 26.07429 -80.14840 16 ft 13 kts 211°
2026-05-07 15:32 26.07362 -80.14854 16 ft 1 kts 179°
2026-05-07 15:32 26.07337 -80.14854 16 ft 5 kts 180°
2026-05-07 15:32 26.07282 -80.14854 16 ft 10 kts 180°
2026-05-07 15:33 26.07207 -80.14855 16 ft 12 kts 181°
2026-05-07 15:33 26.07117 -80.14857 16 ft 13 kts 181°
2026-05-07 15:33 26.07038 -80.14809 16 ft 14 kts 136°
2026-05-07 15:33 26.06995 -80.14735 16 ft 8 kts 98°
2026-05-07 15:34 26.07007 -80.14684 17 ft 6 kts 29°
2026-05-07 15:34 26.07031 -80.14675 16 ft 4 kts 19°
2026-05-07 15:34 26.07044 -80.14671 16 ft 0 kts 16°